Terminal Aerodrome Forecast
Issued by NWS Medford, OR

Home | Current Version | Previous Version | Text Only | Print | Product List | Glossary On
Versions: 1 2 3 4 5 6 7 8 9 10 11 12 13 14
000
FTUS46 KMFR 202300
TAFMFR
TAF
KMFR 202339Z 2100/2124 VRB03KT P6SM BKN200
     FM212100 31008KT P6SM BKN050 OVC080=

USA.gov is the U.S. government's official web portal to all federal, state and local government web resources and services.